ANGELS

Last updated on Sat Apr 13 2024 01:02:34 GMT+0100 (British Summer Time)

1 44876U 19092D 24103.52868710 .00007703 00000+0 30449-3 0 9996 2 44876 97.4771 292.0504 0010200 184.2127 175.9027 15.25723480239345
UTC large
Height (km)
Speed (km/s)
/
Latitude / Longitude
Inclination (degrees)
Orbital Period (minutes)
Azimuth
Elevation
Range (km)
Doppler Factor

Next 0 passes for location: London (51.5072 / 0.1276)

Sorry there are no passes over London.